Time,TemperatureF,DewpointF,PressureIn,WindDirection,WindDirectionDegrees,WindSpeedMPH,WindSpeedGustMPH,Humidity,HourlyPrecipIn,Conditions,Clouds,dailyrainin,SoftwareType,DateUTC
2013-01-22 00:00:00,21.4,6.1,28.94,NNW,347,0.0,4.0,51,0.00,,,0.00,VWS V14.01,2013-01-22 05:00:00,
2013-01-22 00:01:00,21.4,6.1,28.94,NNW,347,0.0,0.0,51,0.00,,,0.00,VWS V14.01,2013-01-22 05:01:00,
2013-01-22 00:02:00,21.4,6.1,28.94,NNW,347,0.0,0.0,51,0.00,,,0.00,VWS V14.01,2013-01-22 05:02:00,
2013-01-22 00:03:00,21.4,6.1,28.94,NNW,347,0.0,0.0,51,0.00,,,0.00,VWS V14.01,2013-01-22 05:03:00,
2013-01-22 00:08:00,21.4,5.6,28.94,SE,132,0.0,0.0,50,0.00,,,0.00,VWS V14.01,2013-01-22 05:08:00,
2013-01-22 00:14:00,21.4,5.6,28.94,ENE,73,0.0,0.0,50,0.00,,,0.00,VWS V14.01,2013-01-22 05:14:00,
2013-01-22 00:20:00,21.4,5.2,28.94,SW,228,0.0,3.1,49,0.00,,,0.00,VWS V14.01,2013-01-22 05:20:00,
2013-01-22 00:25:00,21.4,5.2,28.94,SSE,158,0.0,0.0,49,0.00,,,0.00,VWS V14.01,2013-01-22 05:25:00,
2013-01-22 00:31:00,21.2,4.1,28.94,NE,39,0.0,0.0,47,0.00,,,0.00,VWS V14.01,2013-01-22 05:31:00,
2013-01-22 00:36:00,21.4,4.3,28.94,South,190,0.0,0.0,47,0.00,,,0.00,VWS V14.01,2013-01-22 05:36:00,
2013-01-22 00:42:00,21.0,2.5,28.94,ENE,74,3.1,4.5,44,0.00,,,0.00,VWS V14.01,2013-01-22 05:42:00,
2013-01-22 00:47:00,21.0,2.5,28.94,SSE,159,0.0,5.4,44,0.00,,,0.00,VWS V14.01,2013-01-22 05:47:00,
2013-01-22 00:53:00,21.0,2.0,28.94,SE,129,0.0,0.0,43,0.00,,,0.00,VWS V14.01,2013-01-22 05:53:00,
2013-01-22 00:58:00,20.7,-0.9,28.94,North,356,0.0,2.7,38,0.00,,,0.00,VWS V14.01,2013-01-22 05:58:00,
2013-01-22 01:04:00,20.7,-1.5,28.94,NW,310,0.0,4.0,37,0.00,,,0.00,VWS V14.01,2013-01-22 06:04:00,
2013-01-22 01:10:00,20.8,-1.9,28.94,NW,307,0.0,0.0,36,0.00,,,0.00,VWS V14.01,2013-01-22 06:10:00,
2013-01-22 01:15:00,20.7,-2.7,28.94,NW,323,0.0,0.0,35,0.00,,,0.00,VWS V14.01,2013-01-22 06:15:00,
2013-01-22 01:21:00,20.7,-2.7,28.94,SSW,203,0.0,3.6,35,0.00,,,0.00,VWS V14.01,2013-01-22 06:21:00,
2013-01-22 01:26:00,20.5,-2.8,28.94,SSE,162,0.0,0.0,35,0.00,,,0.00,VWS V14.01,2013-01-22 06:26:00,
2013-01-22 01:32:00,20.5,-3.4,28.94,NE,40,0.0,0.0,34,0.00,,,0.00,VWS V14.01,2013-01-22 06:32:00,
2013-01-22 01:38:00,20.5,-3.4,28.94,ENE,67,0.0,0.0,34,0.00,,,0.00,VWS V14.01,2013-01-22 06:38:00,
2013-01-22 01:43:00,20.3,-3.6,28.94,WNW,290,0.0,2.7,34,0.00,,,0.00,VWS V14.01,2013-01-22 06:43:00,
2013-01-22 01:49:00,20.3,-3.6,28.94,WNW,290,0.0,0.0,34,0.00,,,0.00,VWS V14.01,2013-01-22 06:49:00,
2013-01-22 01:54:00,20.3,-3.6,28.94,West,278,0.0,0.0,34,0.00,,,0.00,VWS V14.01,2013-01-22 06:54:00,
2013-01-22 02:00:00,19.9,-3.9,28.97,ENE,73,0.0,0.0,34,0.00,,,0.00,VWS V14.01,2013-01-22 07:00:00,
2013-01-22 02:05:00,20.1,-3.7,28.97,ENE,73,0.0,0.0,34,0.00,,,0.00,VWS V14.01,2013-01-22 07:05:00,
2013-01-22 02:11:00,19.9,-3.9,28.97,ENE,73,0.0,0.0,34,0.00,,,0.00,VWS V14.01,2013-01-22 07:11:00,
2013-01-22 02:19:00,19.8,-4.1,28.97,ESE,104,0.0,4.5,34,0.00,,,0.00,VWS V14.01,2013-01-22 07:19:00,
2013-01-22 02:29:00,19.4,-4.4,28.97,SE,133,0.0,4.5,34,0.00,,,0.00,VWS V14.01,2013-01-22 07:29:00,
2013-01-22 02:34:00,19.4,-4.4,28.97,ESE,106,0.0,0.0,34,0.00,,,0.00,VWS V14.01,2013-01-22 07:34:00,
2013-01-22 02:39:00,19.6,-4.2,28.97,West,277,0.0,0.0,34,0.00,,,0.00,VWS V14.01,2013-01-22 07:39:00,
2013-01-22 02:45:00,19.4,-5.0,28.97,NE,37,0.0,3.6,33,0.00,,,0.00,VWS V14.01,2013-01-22 07:45:00,
2013-01-22 02:51:00,19.2,-5.2,28.97,NE,55,0.0,5.4,33,0.00,,,0.00,VWS V14.01,2013-01-22 07:51:00,
2013-01-22 02:56:00,19.2,-5.2,28.97,SE,128,0.0,0.0,33,0.00,,,0.00,VWS V14.01,2013-01-22 07:56:00,
2013-01-22 03:02:00,19.0,-5.3,28.97,NNW,328,0.0,0.0,33,0.00,,,0.00,VWS V14.01,2013-01-22 08:02:00,
2013-01-22 03:07:00,19.0,-5.3,28.97,WNW,300,0.0,0.0,33,0.00,,,0.00,VWS V14.01,2013-01-22 08:07:00,
2013-01-22 03:13:00,18.9,-5.5,28.97,NNE,16,0.0,0.0,33,0.00,,,0.00,VWS V14.01,2013-01-22 08:13:00,
2013-01-22 03:18:00,18.9,-5.5,28.97,North,6,0.0,0.0,33,0.00,,,0.00,VWS V14.01,2013-01-22 08:18:00,
2013-01-22 03:24:00,18.9,-5.5,28.97,SSE,156,0.0,0.0,33,0.00,,,0.00,VWS V14.01,2013-01-22 08:24:00,
2013-01-22 03:30:00,18.9,-7.4,28.97,NNE,28,0.0,0.0,30,0.00,,,0.00,VWS V14.01,2013-01-22 08:30:00,
2013-01-22 03:35:00,18.5,-7.1,28.97,North,0,0.0,0.0,31,0.00,,,0.00,VWS V14.01,2013-01-22 08:35:00,
2013-01-22 03:41:00,18.3,-7.2,28.97,ENE,62,0.0,4.0,31,0.00,,,0.00,VWS V14.01,2013-01-22 08:41:00,
2013-01-22 03:46:00,18.3,-7.2,28.97,ENE,70,0.0,0.0,31,0.00,,,0.00,VWS V14.01,2013-01-22 08:46:00,
2013-01-22 03:52:00,18.3,-7.2,28.97,ENE,70,0.0,0.0,31,0.00,,,0.00,VWS V14.01,2013-01-22 08:52:00,
2013-01-22 03:57:00,18.1,-7.4,28.97,NNW,347,0.0,0.0,31,0.00,,,0.00,VWS V14.01,2013-01-22 08:57:00,
2013-01-22 04:03:00,18.1,-7.4,28.97,ENE,68,0.0,0.0,31,0.00,,,0.00,VWS V14.01,2013-01-22 09:03:00,
2013-01-22 04:08:00,18.0,-7.6,28.97,North,0,0.0,0.0,31,0.00,,,0.00,VWS V14.01,2013-01-22 09:08:00,
2013-01-22 04:14:00,18.0,-6.3,28.97,ENE,74,0.0,0.0,33,0.00,,,0.00,VWS V14.01,2013-01-22 09:14:00,
2013-01-22 04:19:00,18.0,-6.3,28.97,ESE,114,0.0,0.0,33,0.00,,,0.00,VWS V14.01,2013-01-22 09:19:00,
2013-01-22 04:25:00,18.1,-6.1,28.97,North,2,0.0,0.0,33,0.00,,,0.00,VWS V14.01,2013-01-22 09:25:00,
2013-01-22 04:31:00,18.3,-6.0,28.97,NNW,339,0.0,0.0,33,0.00,,,0.00,VWS V14.01,2013-01-22 09:31:00,
2013-01-22 04:36:00,18.5,-5.8,28.97,WSW,251,0.0,2.7,33,0.00,,,0.00,VWS V14.01,2013-01-22 09:36:00,
2013-01-22 04:42:00,18.5,-5.8,28.97,NW,324,4.0,4.5,33,0.00,,,0.00,VWS V14.01,2013-01-22 09:42:00,
2013-01-22 04:47:00,18.5,-5.8,29.00,North,0,0.0,3.1,33,0.00,,,0.00,VWS V14.01,2013-01-22 09:47:00,
2013-01-22 04:53:00,18.5,-5.2,29.00,ENE,77,0.0,0.0,34,0.00,,,0.00,VWS V14.01,2013-01-22 09:53:00,
2013-01-22 04:58:00,18.3,-5.3,29.00,East,83,0.0,0.0,34,0.00,,,0.00,VWS V14.01,2013-01-22 09:58:00,
2013-01-22 05:04:00,18.1,-5.5,29.00,SSE,168,0.0,0.0,34,0.00,,,0.00,VWS V14.01,2013-01-22 10:04:00,
2013-01-22 05:09:00,18.0,-5.7,29.00,NNW,337,0.0,0.0,34,0.00,,,0.00,VWS V14.01,2013-01-22 10:09:00,
2013-01-22 05:15:00,17.8,-5.8,29.00,North,0,0.0,0.0,34,0.00,,,0.00,VWS V14.01,2013-01-22 10:15:00,
2013-01-22 05:20:00,17.6,-6.0,29.00,ENE,68,0.0,0.0,34,0.00,,,0.00,VWS V14.01,2013-01-22 10:20:00,
2013-01-22 05:26:00,17.4,-6.1,29.00,NNW,344,0.0,0.0,34,0.00,,,0.00,VWS V14.01,2013-01-22 10:26:00,
2013-01-22 05:32:00,17.2,-6.3,29.03,NNW,332,0.0,0.0,34,0.00,,,0.00,VWS V14.01,2013-01-22 10:32:00,
2013-01-22 05:37:00,17.2,-6.3,29.03,ENE,70,0.0,0.0,34,0.00,,,0.00,VWS V14.01,2013-01-22 10:37:00,
2013-01-22 05:43:00,17.2,-6.3,29.03,ENE,70,0.0,0.0,34,0.00,,,0.00,VWS V14.01,2013-01-22 10:43:00,
2013-01-22 05:48:00,17.2,-6.3,29.03,ENE,70,0.0,0.0,34,0.00,,,0.00,VWS V14.01,2013-01-22 10:48:00,
2013-01-22 05:54:00,17.2,-6.3,29.03,North,0,0.0,0.0,34,0.00,,,0.00,VWS V14.01,2013-01-22 10:54:00,
2013-01-22 05:59:00,17.2,-6.3,29.03,NE,45,0.0,4.0,34,0.00,,,0.00,VWS V14.01,2013-01-22 10:59:00,
2013-01-22 06:05:00,16.9,-6.6,29.03,NNW,338,0.0,0.0,34,0.00,,,0.00,VWS V14.01,2013-01-22 11:05:00,
2013-01-22 06:11:00,16.7,-6.8,29.03,NNW,346,0.0,0.0,34,0.00,,,0.00,VWS V14.01,2013-01-22 11:11:00,
2013-01-22 06:16:00,16.5,-8.8,29.06,North,3,0.0,0.0,31,0.00,,,0.00,VWS V14.01,2013-01-22 11:16:00,
2013-01-22 06:22:00,16.5,-8.8,29.06,NNE,15,0.0,0.0,31,0.00,,,0.00,VWS V14.01,2013-01-22 11:22:00,
2013-01-22 06:27:00,16.3,-9.0,29.06,North,0,0.0,0.0,31,0.00,,,0.00,VWS V14.01,2013-01-22 11:27:00,
2013-01-22 06:33:00,16.3,-10.3,29.06,NNE,29,0.0,0.0,29,0.00,,,0.00,VWS V14.01,2013-01-22 11:33:00,
2013-01-22 06:38:00,16.2,-9.1,29.06,North,4,0.0,0.0,31,0.00,,,0.00,VWS V14.01,2013-01-22 11:38:00,
2013-01-22 06:44:00,15.8,-10.8,29.06,NNE,15,0.0,4.9,29,0.00,,,0.00,VWS V14.01,2013-01-22 11:44:00,
2013-01-22 06:49:00,15.8,-10.8,29.06,NNE,17,0.0,4.9,29,0.00,,,0.00,VWS V14.01,2013-01-22 11:49:00,
2013-01-22 06:55:00,15.8,-10.8,29.06,North,10,0.0,0.0,29,0.00,,,0.00,VWS V14.01,2013-01-22 11:55:00,
2013-01-22 07:01:00,15.8,-10.8,29.06,North,2,0.0,0.0,29,0.00,,,0.00,VWS V14.01,2013-01-22 12:01:00,
2013-01-22 07:06:00,15.8,-10.8,29.06,NNE,29,0.0,0.0,29,0.00,,,0.00,VWS V14.01,2013-01-22 12:06:00,
2013-01-22 07:12:00,15.6,-11.0,29.06,NE,50,0.0,0.0,29,0.00,,,0.00,VWS V14.01,2013-01-22 12:12:00,
2013-01-22 07:17:00,15.4,-13.3,29.06,NW,323,0.0,5.4,26,0.00,,,0.00,VWS V14.01,2013-01-22 12:17:00,
2013-01-22 07:23:00,15.3,-13.5,29.06,NE,39,0.0,0.0,26,0.00,,,0.00,VWS V14.01,2013-01-22 12:23:00,
2013-01-22 07:28:00,15.1,-13.6,29.06,North,10,0.0,4.5,26,0.00,,,0.00,VWS V14.01,2013-01-22 12:28:00,
2013-01-22 07:34:00,15.3,-15.1,29.06,NNE,18,0.0,6.7,24,0.00,,,0.00,VWS V14.01,2013-01-22 12:34:00,
2013-01-22 07:39:00,15.3,-15.1,29.06,NE,39,0.0,0.0,24,0.00,,,0.00,VWS V14.01,2013-01-22 12:39:00,
2013-01-22 07:45:00,15.6,-14.7,29.09,North,3,0.0,0.0,24,0.00,,,0.00,VWS V14.01,2013-01-22 12:45:00,
2013-01-22 07:50:00,15.8,-14.6,29.09,NE,45,0.0,0.0,24,0.00,,,0.00,VWS V14.01,2013-01-22 12:50:00,
2013-01-22 07:57:00,16.0,-14.4,29.09,NNE,16,0.0,2.7,24,0.00,,,0.00,VWS V14.01,2013-01-22 12:57:00,
2013-01-22 08:03:00,16.2,-14.3,29.09,NE,39,0.0,4.5,24,0.00,,,0.00,VWS V14.01,2013-01-22 13:03:00,
2013-01-22 08:08:00,16.0,-14.4,29.09,NNE,18,0.0,0.0,24,0.00,,,0.00,VWS V14.01,2013-01-22 13:08:00,
2013-01-22 08:14:00,16.3,-14.1,29.09,SE,140,0.0,0.0,24,0.00,,,0.00,VWS V14.01,2013-01-22 13:14:00,
2013-01-22 08:19:00,16.5,-14.0,29.09,NE,52,0.0,4.5,24,0.00,,,0.00,VWS V14.01,2013-01-22 13:19:00,
2013-01-22 08:25:00,16.7,-14.6,29.09,North,2,3.1,3.1,23,0.00,,,0.00,VWS V14.01,2013-01-22 13:25:00,
2013-01-22 08:31:00,16.9,-14.5,29.09,North,351,2.7,4.0,23,0.00,,,0.00,VWS V14.01,2013-01-22 13:31:00,
2013-01-22 08:36:00,17.2,-14.2,29.09,NE,39,0.0,0.0,23,0.00,,,0.00,VWS V14.01,2013-01-22 13:36:00,
2013-01-22 08:42:00,17.4,-14.0,29.09,East,80,0.0,2.7,23,0.00,,,0.00,VWS V14.01,2013-01-22 13:42:00,
2013-01-22 08:47:00,17.6,-13.9,29.09,North,3,0.0,3.6,23,0.00,,,0.00,VWS V14.01,2013-01-22 13:47:00,
2013-01-22 08:53:00,18.1,-13.4,29.09,ENE,76,0.0,6.9,23,0.00,,,0.00,VWS V14.01,2013-01-22 13:53:00,
2013-01-22 08:58:00,18.0,-13.6,29.09,North,10,0.0,2.7,23,0.00,,,0.00,VWS V14.01,2013-01-22 13:58:00,
2013-01-22 09:04:00,18.3,-13.3,29.12,NW,319,3.6,3.6,23,0.00,,,0.00,VWS V14.01,2013-01-22 14:04:00,
2013-01-22 09:09:00,18.3,-13.3,29.12,NNE,13,0.0,0.0,23,0.00,,,0.00,VWS V14.01,2013-01-22 14:09:00,
2013-01-22 09:15:00,18.7,-13.0,29.12,ENE,68,2.7,4.0,23,0.00,,,0.00,VWS V14.01,2013-01-22 14:15:00,
2013-01-22 09:20:00,18.3,-13.3,29.12,ESE,112,2.7,4.5,23,0.00,,,0.00,VWS V14.01,2013-01-22 14:20:00,
2013-01-22 09:27:00,18.5,-13.1,29.12,NW,312,4.5,4.5,23,0.00,,,0.00,VWS V14.01,2013-01-22 14:27:00,
2013-01-22 09:33:00,18.5,-13.1,29.12,NNW,347,4.5,6.7,23,0.00,,,0.00,VWS V14.01,2013-01-22 14:33:00,
2013-01-22 09:38:00,19.0,-12.6,29.12,NNE,24,0.0,4.0,23,0.00,,,0.00,VWS V14.01,2013-01-22 14:38:00,
2013-01-22 09:44:00,19.0,-12.6,29.12,North,351,0.0,3.6,23,0.00,,,0.00,VWS V14.01,2013-01-22 14:44:00,
2013-01-22 09:49:00,19.2,-12.5,29.12,WNW,302,0.0,0.0,23,0.00,,,0.00,VWS V14.01,2013-01-22 14:49:00,
2013-01-22 09:55:00,19.2,-12.5,29.12,NNW,339,3.1,5.8,23,0.00,,,0.00,VWS V14.01,2013-01-22 14:55:00,
2013-01-22 10:00:00,19.8,-12.0,29.12,WSW,254,0.0,3.6,23,0.00,,,0.00,VWS V14.01,2013-01-22 15:00:00,
2013-01-22 10:06:00,19.9,-11.9,29.12,NNW,343,6.3,6.9,23,0.00,,,0.00,VWS V14.01,2013-01-22 15:06:00,
2013-01-22 10:11:00,19.8,-12.0,29.12,North,0,5.8,6.3,23,0.00,,,0.00,VWS V14.01,2013-01-22 15:11:00,
2013-01-22 10:17:00,19.6,-12.2,29.12,NW,310,0.0,9.2,23,0.00,,,0.00,VWS V14.01,2013-01-22 15:17:00,
2013-01-22 10:22:00,19.2,-12.5,29.12,East,98,0.0,3.6,23,0.00,,,0.00,VWS V14.01,2013-01-22 15:22:00,
2013-01-22 10:28:00,19.2,-12.5,29.12,ENE,61,3.1,4.0,23,0.00,,,0.00,VWS V14.01,2013-01-22 15:28:00,
2013-01-22 10:34:00,19.6,-12.2,29.12,NNW,331,0.0,4.0,23,0.00,,,0.00,VWS V14.01,2013-01-22 15:34:00,
2013-01-22 10:39:00,19.8,-12.0,29.12,East,100,3.6,3.6,23,0.00,,,0.00,VWS V14.01,2013-01-22 15:39:00,
2013-01-22 10:45:00,19.8,-12.0,29.12,ESE,106,3.1,4.0,23,0.00,,,0.00,VWS V14.01,2013-01-22 15:45:00,
2013-01-22 10:50:00,19.9,-11.9,29.12,ENE,69,0.0,4.9,23,0.00,,,0.00,VWS V14.01,2013-01-22 15:50:00,
2013-01-22 10:57:00,19.8,-12.0,29.12,ENE,76,0.0,4.5,23,0.00,,,0.00,VWS V14.01,2013-01-22 15:57:00,
2013-01-22 11:02:00,19.4,-12.3,29.12,East,95,0.0,4.9,23,0.00,,,0.00,VWS V14.01,2013-01-22 16:02:00,
2013-01-22 11:08:00,19.6,-12.2,29.12,SSW,210,2.7,5.8,23,0.00,,,0.00,VWS V14.01,2013-01-22 16:08:00,
2013-01-22 11:13:00,19.4,-12.3,29.12,NNE,27,4.5,5.8,23,0.00,,,0.00,VWS V14.01,2013-01-22 16:13:00,
2013-01-22 11:19:00,19.6,-12.2,29.12,WNW,283,0.0,3.6,23,0.00,,,0.00,VWS V14.01,2013-01-22 16:19:00,
2013-01-22 11:25:00,19.6,-12.2,29.12,NE,41,2.7,3.1,23,0.00,,,0.00,VWS V14.01,2013-01-22 16:25:00,
2013-01-22 11:30:00,20.1,-11.7,29.12,WNW,303,2.7,3.6,23,0.00,,,0.00,VWS V14.01,2013-01-22 16:30:00,
2013-01-22 11:36:00,20.3,-11.6,29.12,East,87,0.0,4.0,23,0.00,,,0.00,VWS V14.01,2013-01-22 16:36:00,
2013-01-22 11:41:00,20.1,-11.7,29.12,East,79,3.1,5.8,23,0.00,,,0.00,VWS V14.01,2013-01-22 16:41:00,
2013-01-22 11:47:00,19.6,-12.2,29.12,ESE,113,3.1,3.6,23,0.00,,,0.00,VWS V14.01,2013-01-22 16:47:00,
2013-01-22 11:52:00,19.2,-12.5,29.12,ENE,61,0.0,5.8,23,0.00,,,0.00,VWS V14.01,2013-01-22 16:52:00,
2013-01-22 11:58:00,19.0,-12.6,29.12,ENE,58,4.0,5.8,23,0.00,,,0.00,VWS V14.01,2013-01-22 16:58:00,
2013-01-22 12:04:00,18.9,-12.8,29.09,NNW,344,6.3,6.7,23,0.00,,,0.00,VWS V14.01,2013-01-22 17:04:00,
2013-01-22 12:10:00,18.9,-12.8,29.09,WNW,290,4.0,4.0,23,0.00,,,0.00,VWS V14.01,2013-01-22 17:10:00,
2013-01-22 12:16:00,19.0,-12.6,29.09,North,5,4.5,5.4,23,0.00,,,0.00,VWS V14.01,2013-01-22 17:16:00,
2013-01-22 12:21:00,18.3,-13.3,29.09,SSE,168,0.0,5.8,23,0.00,,,0.00,VWS V14.01,2013-01-22 17:21:00,
2013-01-22 12:27:00,18.1,-13.4,29.09,NNW,347,0.0,4.0,23,0.00,,,0.00,VWS V14.01,2013-01-22 17:27:00,
2013-01-22 12:32:00,17.6,-13.9,29.09,North,351,4.9,4.9,23,0.00,,,0.00,VWS V14.01,2013-01-22 17:32:00,
2013-01-22 12:38:00,17.6,-13.9,29.09,East,94,0.0,4.0,23,0.00,,,0.00,VWS V14.01,2013-01-22 17:38:00,
2013-01-22 12:44:00,18.1,-13.4,29.09,ENE,57,4.0,5.4,23,0.00,,,0.00,VWS V14.01,2013-01-22 17:44:00,
2013-01-22 12:49:00,17.8,-13.7,29.09,North,0,5.8,5.8,23,0.00,,,0.00,VWS V14.01,2013-01-22 17:49:00,
2013-01-22 12:55:00,18.0,-13.6,29.09,NW,322,7.8,7.8,23,0.00,,,0.00,VWS V14.01,2013-01-22 17:55:00,
2013-01-22 13:00:00,18.3,-13.3,29.09,ENE,67,6.3,6.3,23,0.00,,,0.00,VWS V14.01,2013-01-22 18:00:00,
2013-01-22 13:06:00,18.9,-12.8,29.09,East,94,2.7,4.9,23,0.00,,,0.00,VWS V14.01,2013-01-22 18:06:00,
2013-01-22 13:11:00,19.4,-12.3,29.09,NE,38,4.5,5.8,23,0.00,,,0.00,VWS V14.01,2013-01-22 18:11:00,
2013-01-22 13:17:00,19.6,-12.2,29.09,NNE,14,3.6,3.6,23,0.00,,,0.00,VWS V14.01,2013-01-22 18:17:00,
2013-01-22 13:22:00,19.2,-12.5,29.09,NNE,33,0.0,6.7,23,0.00,,,0.00,VWS V14.01,2013-01-22 18:22:00,
2013-01-22 13:28:00,19.4,-12.3,29.09,ESE,114,3.6,3.6,23,0.00,,,0.00,VWS V14.01,2013-01-22 18:28:00,
2013-01-22 13:33:00,19.4,-12.3,29.09,NE,40,3.1,4.0,23,0.00,,,0.00,VWS V14.01,2013-01-22 18:33:00,
2013-01-22 13:39:00,19.4,-12.3,29.09,SSW,193,0.0,4.5,23,0.00,,,0.00,VWS V14.01,2013-01-22 18:39:00,
2013-01-22 13:45:00,19.2,-12.5,29.09,NE,51,3.1,4.0,23,0.00,,,0.00,VWS V14.01,2013-01-22 18:45:00,
2013-01-22 13:50:00,18.7,-13.0,29.09,NNW,346,4.9,4.9,23,0.00,,,0.00,VWS V14.01,2013-01-22 18:50:00,
2013-01-22 13:56:00,18.3,-13.3,29.09,ENE,69,0.0,3.6,23,0.00,,,0.00,VWS V14.01,2013-01-22 18:56:00,
2013-01-22 14:01:00,17.6,-13.9,29.09,NE,50,2.7,6.3,23,0.00,,,0.00,VWS V14.01,2013-01-22 19:01:00,
2013-01-22 14:07:00,17.4,-14.0,29.09,NNE,33,0.0,4.9,23,0.00,,,0.00,VWS V14.01,2013-01-22 19:07:00,
2013-01-22 14:12:00,17.4,-14.0,29.09,NW,314,4.9,5.4,23,0.00,,,0.00,VWS V14.01,2013-01-22 19:12:00,
2013-01-22 14:18:00,17.4,-14.0,29.12,North,0,5.4,5.4,23,0.00,,,0.00,VWS V14.01,2013-01-22 19:18:00,
2013-01-22 14:23:00,17.4,-14.0,29.12,NNW,346,0.0,2.7,23,0.00,,,0.00,VWS V14.01,2013-01-22 19:23:00,
2013-01-22 14:29:00,17.4,-14.0,29.12,NE,41,0.0,4.5,23,0.00,,,0.00,VWS V14.01,2013-01-22 19:29:00,
2013-01-22 14:35:00,17.4,-14.0,29.12,ENE,60,0.0,3.1,23,0.00,,,0.00,VWS V14.01,2013-01-22 19:35:00,
2013-01-22 14:40:00,17.4,-14.0,29.12,North,10,3.6,4.0,23,0.00,,,0.00,VWS V14.01,2013-01-22 19:40:00,
2013-01-22 14:46:00,17.2,-14.2,29.12,NE,37,0.0,3.1,23,0.00,,,0.00,VWS V14.01,2013-01-22 19:46:00,
2013-01-22 14:51:00,17.2,-14.2,29.12,SSW,197,2.7,3.1,23,0.00,,,0.00,VWS V14.01,2013-01-22 19:51:00,
2013-01-22 14:57:00,16.9,-14.5,29.12,NNW,338,4.5,6.3,23,0.00,,,0.00,VWS V14.01,2013-01-22 19:57:00,
2013-01-22 15:02:00,16.9,-14.5,29.12,NE,48,0.0,4.5,23,0.00,,,0.00,VWS V14.01,2013-01-22 20:02:00,
2013-01-22 15:08:00,16.5,-14.0,29.12,NE,55,0.0,4.5,24,0.00,,,0.00,VWS V14.01,2013-01-22 20:08:00,
2013-01-22 15:13:00,16.5,-14.0,29.12,East,85,4.0,4.9,24,0.00,,,0.00,VWS V14.01,2013-01-22 20:13:00,
2013-01-22 15:19:00,16.2,-14.3,29.12,NE,52,0.0,3.1,24,0.00,,,0.00,VWS V14.01,2013-01-22 20:19:00,
2013-01-22 15:25:00,16.0,-14.4,29.12,NNE,13,0.0,0.0,24,0.00,,,0.00,VWS V14.01,2013-01-22 20:25:00,
2013-01-22 15:30:00,15.8,-14.6,29.12,NNW,345,5.4,5.4,24,0.00,,,0.00,VWS V14.01,2013-01-22 20:30:00,
2013-01-22 15:36:00,15.6,-14.7,29.12,East,84,3.6,4.0,24,0.00,,,0.00,VWS V14.01,2013-01-22 20:36:00,
2013-01-22 15:41:00,15.6,-14.7,29.12,SW,232,0.0,5.8,24,0.00,,,0.00,VWS V14.01,2013-01-22 20:41:00,
2013-01-22 15:47:00,15.4,-14.9,29.15,SE,141,0.0,3.6,24,0.00,,,0.00,VWS V14.01,2013-01-22 20:47:00,
2013-01-22 15:52:00,15.6,-14.7,29.15,SE,125,5.4,5.4,24,0.00,,,0.00,VWS V14.01,2013-01-22 20:52:00,
2013-01-22 15:58:00,15.6,-14.7,29.15,ESE,123,3.1,5.4,24,0.00,,,0.00,VWS V14.01,2013-01-22 20:58:00,
2013-01-22 16:04:00,15.6,-14.7,29.15,NNE,32,4.0,4.9,24,0.00,,,0.00,VWS V14.01,2013-01-22 21:04:00,
2013-01-22 16:10:00,15.6,-14.7,29.15,WSW,239,0.0,2.7,24,0.00,,,0.00,VWS V14.01,2013-01-22 21:10:00,
2013-01-22 16:16:00,15.4,-14.9,29.15,SE,126,0.0,4.0,24,0.00,,,0.00,VWS V14.01,2013-01-22 21:16:00,
2013-01-22 16:22:00,15.3,-15.1,29.15,SE,128,5.4,5.8,24,0.00,,,0.00,VWS V14.01,2013-01-22 21:22:00,
2013-01-22 16:28:00,15.3,-15.1,29.15,WNW,294,0.0,5.4,24,0.00,,,0.00,VWS V14.01,2013-01-22 21:28:00,
2013-01-22 16:32:00,15.3,-15.1,29.15,NNW,332,4.9,4.9,24,0.00,,,0.00,VWS V14.01,2013-01-22 21:32:00,
2013-01-22 16:38:00,15.3,-15.1,29.15,ENE,67,0.0,3.1,24,0.00,,,0.00,VWS V14.01,2013-01-22 21:38:00,
2013-01-22 16:44:00,15.1,-15.2,29.15,NE,42,0.0,0.0,24,0.00,,,0.00,VWS V14.01,2013-01-22 21:44:00,
2013-01-22 16:49:00,14.9,-15.4,29.15,West,280,2.7,7.4,24,0.00,,,0.00,VWS V14.01,2013-01-22 21:49:00,
2013-01-22 16:55:00,14.9,-15.4,29.15,NE,47,0.0,3.1,24,0.00,,,0.00,VWS V14.01,2013-01-22 21:55:00,
2013-01-22 17:00:00,14.7,-15.5,29.18,SSE,148,0.0,5.4,24,0.00,,,0.00,VWS V14.01,2013-01-22 22:00:00,
2013-01-22 17:06:00,14.7,-15.5,29.18,NNW,332,4.5,6.3,24,0.00,,,0.00,VWS V14.01,2013-01-22 22:06:00,
2013-01-22 17:11:00,14.7,-15.5,29.18,South,186,0.0,0.0,24,0.00,,,0.00,VWS V14.01,2013-01-22 22:11:00,
2013-01-22 17:17:00,14.5,-15.7,29.18,SE,142,0.0,2.7,24,0.00,,,0.00,VWS V14.01,2013-01-22 22:17:00,
2013-01-22 17:22:00,14.4,-15.8,29.18,NNW,328,0.0,0.0,24,0.00,,,0.00,VWS V14.01,2013-01-22 22:22:00,
2013-01-22 17:28:00,14.4,-15.8,29.18,SE,128,0.0,0.0,24,0.00,,,0.00,VWS V14.01,2013-01-22 22:28:00,
2013-01-22 17:34:00,14.4,-15.8,29.18,SW,220,0.0,0.0,24,0.00,,,0.00,VWS V14.01,2013-01-22 22:34:00,
2013-01-22 17:39:00,14.4,-15.8,29.18,NNW,330,0.0,3.6,24,0.00,,,0.00,VWS V14.01,2013-01-22 22:39:00,
2013-01-22 17:44:00,14.2,-16.0,29.18,ESE,107,3.6,4.9,24,0.00,,,0.00,VWS V14.01,2013-01-22 22:44:00,
2013-01-22 17:50:00,14.4,-15.8,29.18,North,351,0.0,4.5,24,0.00,,,0.00,VWS V14.01,2013-01-22 22:50:00,
2013-01-22 17:56:00,14.2,-16.0,29.18,SSW,200,0.0,0.0,24,0.00,,,0.00,VWS V14.01,2013-01-22 22:56:00,
2013-01-22 18:01:00,14.2,-16.0,29.21,North,351,0.0,4.9,24,0.00,,,0.00,VWS V14.01,2013-01-22 23:01:00,
2013-01-22 18:07:00,14.0,-16.1,29.21,SE,127,4.0,4.0,24,0.00,,,0.00,VWS V14.01,2013-01-22 23:07:00,
2013-01-22 18:12:00,13.6,-16.4,29.21,ENE,60,3.1,4.0,24,0.00,,,0.00,VWS V14.01,2013-01-22 23:12:00,
2013-01-22 18:18:00,13.6,-16.4,29.21,NNW,343,3.6,5.4,24,0.00,,,0.00,VWS V14.01,2013-01-22 23:18:00,
2013-01-22 18:24:00,13.5,-16.6,29.21,North,0,0.0,3.6,24,0.00,,,0.00,VWS V14.01,2013-01-22 23:24:00,
2013-01-22 18:29:00,13.3,-16.8,29.21,NE,39,0.0,4.0,24,0.00,,,0.00,VWS V14.01,2013-01-22 23:29:00,
2013-01-22 18:35:00,13.5,-16.6,29.21,ENE,70,0.0,0.0,24,0.00,,,0.00,VWS V14.01,2013-01-22 23:35:00,
2013-01-22 18:40:00,13.3,-16.8,29.21,ESE,104,0.0,0.0,24,0.00,,,0.00,VWS V14.01,2013-01-22 23:40:00,
2013-01-22 18:46:00,13.1,-16.9,29.21,East,89,0.0,4.5,24,0.00,,,0.00,VWS V14.01,2013-01-22 23:46:00,
2013-01-22 18:51:00,13.3,-16.8,29.21,NNE,28,0.0,4.0,24,0.00,,,0.00,VWS V14.01,2013-01-22 23:51:00,
2013-01-22 18:57:00,13.3,-16.8,29.21,SE,138,0.0,0.0,24,0.00,,,0.00,VWS V14.01,2013-01-22 23:57:00,
2013-01-22 19:02:00,13.1,-16.9,29.21,NE,43,0.0,6.3,24,0.00,,,0.00,VWS V14.01,2013-01-23 00:02:00,
2013-01-22 19:08:00,13.1,-16.9,29.21,ENE,69,0.0,0.0,24,0.00,,,0.00,VWS V14.01,2013-01-23 00:08:00,
2013-01-22 19:14:00,13.1,-16.9,29.21,South,190,0.0,2.7,24,0.00,,,0.00,VWS V14.01,2013-01-23 00:14:00,
2013-01-22 19:19:00,13.1,-16.9,29.21,NNW,335,4.0,4.0,24,0.00,,,0.00,VWS V14.01,2013-01-23 00:19:00,
2013-01-22 19:25:00,12.9,-17.1,29.21,East,81,0.0,0.0,24,0.00,,,0.00,VWS V14.01,2013-01-23 00:25:00,
2013-01-22 19:30:00,12.9,-17.1,29.23,SE,136,0.0,6.3,24,0.00,,,0.00,VWS V14.01,2013-01-23 00:30:00,
2013-01-22 19:36:00,12.7,-17.2,29.23,SE,134,3.6,4.0,24,0.00,,,0.00,VWS V14.01,2013-01-23 00:36:00,
2013-01-22 19:42:00,12.7,-17.2,29.23,SE,125,0.0,4.0,24,0.00,,,0.00,VWS V14.01,2013-01-23 00:42:00,
2013-01-22 19:47:00,12.7,-17.2,29.23,WNW,290,3.1,3.6,24,0.00,,,0.00,VWS V14.01,2013-01-23 00:47:00,
2013-01-22 19:53:00,12.7,-17.2,29.23,NNW,344,3.6,4.9,24,0.00,,,0.00,VWS V14.01,2013-01-23 00:53:00,
2013-01-22 19:58:00,12.6,-17.4,29.23,West,261,0.0,2.7,24,0.00,,,0.00,VWS V14.01,2013-01-23 00:58:00,
2013-01-22 20:04:00,12.4,-17.5,29.23,WNW,301,0.0,3.6,24,0.00,,,0.00,VWS V14.01,2013-01-23 01:04:00,
2013-01-22 20:09:00,12.2,-17.7,29.23,NE,51,3.1,4.9,24,0.00,,,0.00,VWS V14.01,2013-01-23 01:09:00,
2013-01-22 20:15:00,12.0,-17.8,29.23,NW,317,4.5,4.5,24,0.00,,,0.00,VWS V14.01,2013-01-23 01:15:00,
2013-01-22 20:20:00,12.2,-17.7,29.23,NE,34,0.0,3.1,24,0.00,,,0.00,VWS V14.01,2013-01-23 01:20:00,
2013-01-22 20:27:00,12.0,-17.8,29.23,South,171,3.1,3.1,24,0.00,,,0.00,VWS V14.01,2013-01-23 01:27:00,
2013-01-22 20:33:00,11.8,-18.0,29.23,East,91,0.0,4.9,24,0.00,,,0.00,VWS V14.01,2013-01-23 01:33:00,
2013-01-22 20:38:00,11.8,-18.0,29.23,NW,324,4.5,4.5,24,0.00,,,0.00,VWS V14.01,2013-01-23 01:38:00,
2013-01-22 20:44:00,11.7,-18.1,29.23,West,279,0.0,3.6,24,0.00,,,0.00,VWS V14.01,2013-01-23 01:44:00,
2013-01-22 20:49:00,11.7,-18.1,29.23,WNW,301,4.5,5.4,24,0.00,,,0.00,VWS V14.01,2013-01-23 01:49:00,
2013-01-22 20:55:00,11.7,-18.1,29.23,WSW,249,3.1,3.6,24,0.00,,,0.00,VWS V14.01,2013-01-23 01:55:00,
2013-01-22 21:00:00,11.5,-18.3,29.23,NE,53,0.0,2.7,24,0.00,,,0.00,VWS V14.01,2013-01-23 02:00:00,
2013-01-22 21:06:00,11.3,-18.5,29.23,ENE,74,0.0,4.0,24,0.00,,,0.00,VWS V14.01,2013-01-23 02:06:00,
2013-01-22 21:11:00,11.1,-18.6,29.23,NNE,28,3.1,4.5,24,0.00,,,0.00,VWS V14.01,2013-01-23 02:11:00,
2013-01-22 21:17:00,11.1,-18.6,29.26,East,84,0.0,4.0,24,0.00,,,0.00,VWS V14.01,2013-01-23 02:17:00,
2013-01-22 21:22:00,10.9,-18.8,29.26,ENE,78,0.0,3.6,24,0.00,,,0.00,VWS V14.01,2013-01-23 02:22:00,
2013-01-22 21:28:00,10.9,-18.8,29.26,WSW,254,0.0,4.5,24,0.00,,,0.00,VWS V14.01,2013-01-23 02:28:00,
2013-01-22 21:34:00,10.8,-18.9,29.26,ENE,60,0.0,3.1,24,0.00,,,0.00,VWS V14.01,2013-01-23 02:34:00,
2013-01-22 21:39:00,10.6,-19.1,29.26,East,81,0.0,0.0,24,0.00,,,0.00,VWS V14.01,2013-01-23 02:39:00,
2013-01-22 21:45:00,10.4,-19.2,29.26,East,93,0.0,5.8,24,0.00,,,0.00,VWS V14.01,2013-01-23 02:45:00,
2013-01-22 21:50:00,10.4,-19.2,29.26,South,177,0.0,4.0,24,0.00,,,0.00,VWS V14.01,2013-01-23 02:50:00,
2013-01-22 21:56:00,10.4,-19.2,29.26,ENE,75,0.0,2.7,24,0.00,,,0.00,VWS V14.01,2013-01-23 02:56:00,
2013-01-22 22:01:00,10.4,-19.2,29.26,South,177,0.0,2.7,24,0.00,,,0.00,VWS V14.01,2013-01-23 03:01:00,
2013-01-22 22:07:00,10.4,-19.2,29.26,ENE,66,0.0,4.0,24,0.00,,,0.00,VWS V14.01,2013-01-23 03:07:00,
2013-01-22 22:12:00,10.2,-19.4,29.26,ENE,65,0.0,4.5,24,0.00,,,0.00,VWS V14.01,2013-01-23 03:12:00,
2013-01-22 22:18:00,10.2,-19.4,29.26,ENE,72,2.7,4.9,24,0.00,,,0.00,VWS V14.01,2013-01-23 03:18:00,
2013-01-22 22:24:00,10.0,-19.5,29.26,NE,35,0.0,3.1,24,0.00,,,0.00,VWS V14.01,2013-01-23 03:24:00,
2013-01-22 22:29:00,10.0,-19.5,29.26,ENE,64,0.0,0.0,24,0.00,,,0.00,VWS V14.01,2013-01-23 03:29:00,
2013-01-22 22:35:00,10.0,-19.5,29.26,NNW,335,0.0,4.0,24,0.00,,,0.00,VWS V14.01,2013-01-23 03:35:00,
2013-01-22 22:40:00,10.0,-19.5,29.26,ENE,60,0.0,0.0,24,0.00,,,0.00,VWS V14.01,2013-01-23 03:40:00,
2013-01-22 22:46:00,9.9,-19.7,29.26,ENE,59,0.0,5.4,24,0.00,,,0.00,VWS V14.01,2013-01-23 03:46:00,
2013-01-22 22:52:00,9.9,-19.7,29.26,WSW,249,2.7,2.7,24,0.00,,,0.00,VWS V14.01,2013-01-23 03:52:00,
2013-01-22 22:58:00,9.9,-19.7,29.26,ENE,59,0.0,0.0,24,0.00,,,0.00,VWS V14.01,2013-01-23 03:58:00,
2013-01-22 23:04:00,9.7,-19.9,29.26,WNW,293,2.7,4.0,24,0.00,,,0.00,VWS V14.01,2013-01-23 04:04:00,
2013-01-22 23:09:00,9.5,-20.0,29.26,NW,319,0.0,6.3,24,0.00,,,0.00,VWS V14.01,2013-01-23 04:09:00,
2013-01-22 23:15:00,9.5,-20.0,29.26,SSE,153,0.0,3.6,24,0.00,,,0.00,VWS V14.01,2013-01-23 04:15:00,
2013-01-22 23:20:00,9.5,-20.0,29.26,SE,130,0.0,0.0,24,0.00,,,0.00,VWS V14.01,2013-01-23 04:20:00,
2013-01-22 23:26:00,9.3,-20.2,29.26,NNE,18,4.5,4.5,24,0.00,,,0.00,VWS V14.01,2013-01-23 04:26:00,
2013-01-22 23:31:00,9.3,-20.2,29.26,ENE,73,0.0,3.6,24,0.00,,,0.00,VWS V14.01,2013-01-23 04:31:00,
2013-01-22 23:37:00,9.5,-20.0,29.26,ESE,105,0.0,0.0,24,0.00,,,0.00,VWS V14.01,2013-01-23 04:37:00,
2013-01-22 23:42:00,9.3,-20.2,29.26,North,0,0.0,3.1,24,0.00,,,0.00,VWS V14.01,2013-01-23 04:42:00,
2013-01-22 23:48:00,9.1,-20.3,29.26,NNE,32,3.1,3.1,24,0.00,,,0.00,VWS V14.01,2013-01-23 04:48:00,
2013-01-22 23:54:00,9.1,-20.3,29.26,NNW,342,3.1,4.5,24,0.00,,,0.00,VWS V14.01,2013-01-23 04:54:00,
2013-01-22 23:59:00,9.0,-20.5,29.26,North,351,0.0,3.6,24,0.00,,,0.00,VWS V14.01,2013-01-23 04:59:00,